When you browse on this site, cookies collect data to enhance your experience and personalize the content and advertising you see.
Visit our Privacy Policy to learn more. By continuing to use the site, you agree to this use of cookies and data.
  • Em Portugal
  • Lista de países
  • Para 7 dias
  • Temperatura da água
  • Mapas de satélite
  • Mapa do tempo
  • Widgets de tempo
  • user-avatar
    Iniciar Sessão

    Previsão horária em Mons

    Hoje, 25 Maio, Sábado

    Tempo Temperatura Precipitação Vento Pressão Humidade
    00:00 +11°C° 0 mm 1 m/s 760 mmHg 78%
    01:00 +10°C° 0 mm 0 m/s 760 mmHg 80%
    02:00 +9°C° 0 mm 0 m/s 760 mmHg 81%
    03:00 +9°C° 0 mm 0 m/s 760 mmHg 82%
    04:00 +10°C° 0 mm 0 m/s 760 mmHg 80%
    05:00 +11°C° 0 mm 0 m/s 760 mmHg 78%
    06:00 +13°C° 0 mm 0 m/s 760 mmHg 76%
    07:00 +13°C° 0.3 mm 0 m/s 760 mmHg 78%
    08:00 +15°C° 0.3 mm 1 m/s 761 mmHg 80%
    09:00 +16°C° 0.3 mm 1 m/s 761 mmHg 81%
    10:00 +16°C° 0.7 mm 1 m/s 761 mmHg 80%
    11:00 +17°C° 0.7 mm 2 m/s 760 mmHg 79%
    12:00 +18°C° 0.7 mm 2 m/s 760 mmHg 78%
    13:00 +18°C° 0.4 mm 2 m/s 760 mmHg 75%
    14:00 +19°C° 0.4 mm 2 m/s 760 mmHg 71%
    15:00 +20°C° 0.4 mm 2 m/s 760 mmHg 67%
    16:00 +19°C° 0.3 mm 2 m/s 760 mmHg 71%
    17:00 +19°C° 0.3 mm 2 m/s 760 mmHg 75%
    18:00 +18°C° 0.3 mm 2 m/s 759 mmHg 79%
    19:00 +16°C° 0 mm 2 m/s 760 mmHg 81%
    20:00 +14°C° 0 mm 2 m/s 760 mmHg 84%
    21:00 +12°C° 0 mm 1 m/s 760 mmHg 86%
    22:00 +12°C° 0 mm 1 m/s 760 mmHg 87%
    23:00 +12°C° 0 mm 2 m/s 760 mmHg 89%

    Amanhã, 26 Maio, Domingo

    Tempo Temperatura Precipitação Vento Pressão Humidade
    00:00 +10°C° 0 mm 2 m/s 760 mmHg 90%
    01:00 +10°C° 0 mm 2 m/s 760 mmHg 92%
    02:00 +10°C° 0 mm 2 m/s 760 mmHg 94%
    03:00 +10°C° 0 mm 3 m/s 759 mmHg 96%
    04:00 +11°C° 0 mm 3 m/s 759 mmHg 96%
    05:00 +12°C° 0 mm 4 m/s 759 mmHg 95%
    06:00 +13°C° 0 mm 4 m/s 759 mmHg 94%
    07:00 +14°C° 0 mm 4 m/s 759 mmHg 91%
    08:00 +17°C° 0 mm 4 m/s 759 mmHg 87%
    09:00 +17°C° 0 mm 5 m/s 759 mmHg 83%
    10:00 +19°C° 0.1 mm 5 m/s 759 mmHg 82%
    11:00 +19°C° 0.1 mm 6 m/s 758 mmHg 80%
    12:00 +20°C° 0.1 mm 6 m/s 758 mmHg 78%
    13:00 +20°C° 0.1 mm 6 m/s 758 mmHg 78%
    14:00 +19°C° 0.1 mm 6 m/s 758 mmHg 79%
    15:00 +19°C° 0.1 mm 6 m/s 757 mmHg 79%
    16:00 +19°C° 0 mm 6 m/s 757 mmHg 81%
    17:00 +19°C° 0 mm 5 m/s 757 mmHg 83%
    18:00 +17°C° 0 mm 5 m/s 757 mmHg 86%
    19:00 +17°C° 0 mm 5 m/s 757 mmHg 87%
    20:00 +16°C° 0 mm 5 m/s 757 mmHg 88%
    21:00 +16°C° 0 mm 5 m/s 757 mmHg 89%
    22:00 +16°C° 0 mm 5 m/s 757 mmHg 90%
    23:00 +15°C° 0 mm 5 m/s 756 mmHg 91%

    Depois de amanhã, 27 Maio, Segunda-feira

    Tempo Temperatura Precipitação Vento Pressão Humidade
    00:00 +15°C° 0 mm 5 m/s 756 mmHg 91%
    01:00 +15°C° 0.1 mm 4 m/s 756 mmHg 93%
    02:00 +14°C° 0.1 mm 4 m/s 756 mmHg 94%
    03:00 +14°C° 0.1 mm 4 m/s 756 mmHg 95%
    04:00 +14°C° 0.1 mm 4 m/s 756 mmHg 94%
    05:00 +14°C° 0.1 mm 3 m/s 757 mmHg 92%
    06:00 +14°C° 0.1 mm 3 m/s 757 mmHg 91%
    07:00 +14°C° 0 mm 3 m/s 757 mmHg 84%
    08:00 +16°C° 0 mm 3 m/s 757 mmHg 77%
    09:00 +17°C° 0 mm 3 m/s 757 mmHg 70%
    10:00 +18°C° 0 mm 3 m/s 757 mmHg 66%
    11:00 +18°C° 0 mm 3 m/s 757 mmHg 62%
    12:00 +19°C° 0 mm 3 m/s 757 mmHg 59%
    13:00 +19°C° 0 mm 3 m/s 757 mmHg 60%
    14:00 +19°C° 0 mm 3 m/s 756 mmHg 62%
    15:00 +19°C° 0 mm 3 m/s 756 mmHg 63%
    16:00 +18°C° 0.1 mm 2 m/s 756 mmHg 68%
    17:00 +17°C° 0.1 mm 2 m/s 756 mmHg 74%
    18:00 +16°C° 0.1 mm 1 m/s 756 mmHg 79%
    19:00 +15°C° 0.1 mm 2 m/s 756 mmHg 81%
    20:00 +14°C° 0.1 mm 2 m/s 756 mmHg 83%
    21:00 +13°C° 0.1 mm 2 m/s 756 mmHg 85%
    22:00 +13°C° 0 mm 2 m/s 755 mmHg 87%
    23:00 +12°C° 0 mm 2 m/s 755 mmHg 89%

    28 Maio, Terça-feira

    Tempo Temperatura Precipitação Vento Pressão Humidade
    00:00 +11°C° 0 mm 3 m/s 755 mmHg 91%
    01:00 +10°C° 0 mm 3 m/s 755 mmHg 92%
    02:00 +10°C° 0 mm 3 m/s 754 mmHg 94%
    03:00 +9°C° 0 mm 3 m/s 754 mmHg 96%
    04:00 +10°C° 0 mm 3 m/s 754 mmHg 94%
    05:00 +11°C° 0 mm 3 m/s 754 mmHg 92%
    06:00 +11°C° 0 mm 3 m/s 754 mmHg 90%
    07:00 +13°C° 0.2 mm 4 m/s 754 mmHg 85%
    08:00 +14°C° 0.2 mm 4 m/s 754 mmHg 80%
    09:00 +15°C° 0.2 mm 4 m/s 754 mmHg 74%
    10:00 +15°C° 0.8 mm 4 m/s 754 mmHg 74%
    11:00 +17°C° 0.8 mm 4 m/s 754 mmHg 73%
    12:00 +17°C° 0.8 mm 4 m/s 754 mmHg 72%
    13:00 +17°C° 0.8 mm 4 m/s 754 mmHg 73%
    14:00 +17°C° 0.8 mm 4 m/s 754 mmHg 74%
    15:00 +17°C° 0.8 mm 4 m/s 754 mmHg 75%
    16:00 +17°C° 0.3 mm 4 m/s 755 mmHg 77%
    17:00 +16°C° 0.3 mm 3 m/s 755 mmHg 79%
    18:00 +16°C° 0.3 mm 3 m/s 755 mmHg 81%
    19:00 +13°C° 0 mm 3 m/s 756 mmHg 84%
    20:00 +11°C° 0 mm 3 m/s 756 mmHg 87%
    21:00 +9°C° 0 mm 3 m/s 757 mmHg 90%
    22:00 +9°C° 0 mm 2 m/s 757 mmHg 91%
    23:00 +8°C° 0 mm 2 m/s 758 mmHg 92%

    29 Maio, Quarta-feira

    Tempo Temperatura Precipitação Vento Pressão Humidade
    00:00 +8°C° 0 mm 2 m/s 758 mmHg 93%
    01:00 +7°C° 0 mm 2 m/s 758 mmHg 94%
    02:00 +8°C° 0 mm 1 m/s 759 mmHg 94%
    03:00 +8°C° 0 mm 1 m/s 759 mmHg 95%
    04:00 +8°C° 0 mm 2 m/s 759 mmHg 93%
    05:00 +9°C° 0 mm 2 m/s 760 mmHg 92%
    06:00 +10°C° 0 mm 3 m/s 760 mmHg 90%
    07:00 +12°C° 0.1 mm 3 m/s 761 mmHg 85%
    08:00 +13°C° 0.1 mm 3 m/s 761 mmHg 80%
    09:00 +14°C° 0.1 mm 4 m/s 762 mmHg 76%
    10:00 +14°C° 0.1 mm 4 m/s 762 mmHg 72%
    11:00 +15°C° 0.1 mm 4 m/s 763 mmHg 68%
    12:00 +17°C° 0.1 mm 4 m/s 763 mmHg 64%
    13:00 +17°C° 0 mm 4 m/s 763 mmHg 61%
    14:00 +18°C° 0 mm 4 m/s 763 mmHg 58%
    15:00 +18°C° 0 mm 4 m/s 763 mmHg 56%
    16:00 +17°C° 0 mm 3 m/s 764 mmHg 61%
    17:00 +16°C° 0 mm 3 m/s 764 mmHg 66%
    18:00 +16°C° 0 mm 3 m/s 764 mmHg 70%
    19:00 +14°C° 0 mm 2 m/s 765 mmHg 73%
    20:00 +12°C° 0 mm 2 m/s 765 mmHg 76%
    21:00 +10°C° 0 mm 1 m/s 766 mmHg 79%
    22:00 +9°C° 0 mm 1 m/s 766 mmHg 78%
    23:00 +9°C° 0 mm 1 m/s 766 mmHg 78%

    30 Maio, Quinta-feira

    Tempo Temperatura Precipitação Vento Pressão Humidade
    00:00 +9°C° 0 mm 1 m/s 766 mmHg 77%
    01:00 +7°C° 0 mm 2 m/s 766 mmHg 79%
    02:00 +7°C° 0 mm 2 m/s 765 mmHg 81%
    03:00 +7°C° 0 mm 3 m/s 765 mmHg 83%
    04:00 +8°C° 0 mm 3 m/s 765 mmHg 82%
    05:00 +9°C° 0 mm 3 m/s 765 mmHg 81%
    06:00 +10°C° 0 mm 4 m/s 765 mmHg 80%
    07:00 +11°C° 0 mm 4 m/s 765 mmHg 76%
    08:00 +13°C° 0 mm 5 m/s 765 mmHg 72%
    09:00 +15°C° 0 mm 5 m/s 764 mmHg 68%
    10:00 +16°C° 0 mm 6 m/s 764 mmHg 68%
    11:00 +17°C° 0 mm 6 m/s 764 mmHg 67%
    12:00 +18°C° 0 mm 7 m/s 763 mmHg 67%
    13:00 +19°C° 0.1 mm 6 m/s 763 mmHg 72%
    14:00 +17°C° 0.1 mm 5 m/s 763 mmHg 76%
    15:00 +18°C° 0.1 mm 4 m/s 762 mmHg 81%
    16:00 +17°C° 0.1 mm 4 m/s 762 mmHg 82%
    17:00 +16°C° 0.1 mm 5 m/s 762 mmHg 83%
    18:00 +16°C° 0.1 mm 5 m/s 761 mmHg 84%
    19:00 +15°C° 0.1 mm 5 m/s 762 mmHg 87%
    20:00 +15°C° 0.1 mm 5 m/s 762 mmHg 89%
    21:00 +14°C° 0.1 mm 5 m/s 762 mmHg 91%
    22:00 +14°C° 0 mm 5 m/s 762 mmHg 92%
    23:00 +14°C° 0 mm 5 m/s 762 mmHg 93%
    Mostrar mais